Time,TemperatureF,DewpointF,PressureIn,WindDirection,WindDirectionDegrees,WindSpeedMPH,WindSpeedGustMPH,Humidity,HourlyPrecipIn,Conditions,Clouds,dailyrainin,SoftwareType,DateUTC
2013-07-03 00:11:00,69.0,67.0,29.98,NNE,18,0.0,0.0,93,0.00,,,0.01,,2013-07-03 05:11:00,
2013-07-03 00:47:00,68.0,67.0,29.98,NNE,18,0.0,0.0,95,0.00,,,0.00,,2013-07-03 05:47:00,
2013-07-03 00:56:00,68.0,67.0,29.98,NNE,18,0.0,0.0,95,0.00,,,0.00,,2013-07-03 05:56:00,
2013-07-03 01:14:00,68.0,67.0,29.98,NNE,18,0.0,0.0,95,0.00,,,0.00,,2013-07-03 06:14:00,
2013-07-03 01:54:00,68.0,67.0,29.98,NNE,18,0.0,0.0,96,0.00,,,0.00,,2013-07-03 06:54:00,
2013-07-03 02:05:00,68.0,67.0,29.98,NNE,18,0.0,0.0,96,0.00,,,0.00,,2013-07-03 07:05:00,
2013-07-03 02:15:00,68.0,67.0,29.98,NNE,18,0.0,0.0,96,0.00,,,0.00,,2013-07-03 07:15:00,
2013-07-03 02:26:00,68.0,67.0,29.98,NNE,18,0.0,0.0,96,0.00,,,0.00,,2013-07-03 07:26:00,
2013-07-03 02:47:00,68.0,67.0,29.97,NNE,18,0.0,0.0,96,0.00,,,0.00,,2013-07-03 07:47:00,
2013-07-03 03:16:00,68.0,67.0,29.97,NNE,18,0.0,0.0,96,0.00,,,0.00,,2013-07-03 08:16:00,
2013-07-03 03:37:00,68.0,67.0,29.98,NNE,18,0.0,0.0,96,0.00,,,0.00,,2013-07-03 08:37:00,
2013-07-03 03:45:00,68.0,67.0,29.98,NNE,18,0.0,0.0,96,0.00,,,0.00,,2013-07-03 08:45:00,
2013-07-03 03:56:00,68.0,67.0,29.98,NNE,18,0.0,0.0,96,0.00,,,0.00,,2013-07-03 08:56:00,
2013-07-03 04:06:00,68.0,67.0,29.99,NNE,18,0.0,0.0,96,0.00,,,0.00,,2013-07-03 09:06:00,
2013-07-03 04:16:00,68.0,67.0,29.99,NNE,18,0.0,0.0,96,0.00,,,0.00,,2013-07-03 09:16:00,
2013-07-03 04:46:00,69.0,68.0,30.00,South,180,0.0,0.0,96,0.00,,,0.00,,2013-07-03 09:46:00,
2013-07-03 05:05:00,69.0,68.0,30.00,SSW,208,0.0,0.0,96,0.00,,,0.00,,2013-07-03 10:05:00,
2013-07-03 05:15:00,69.0,68.0,30.00,SSW,208,0.0,0.0,96,0.00,,,0.00,,2013-07-03 10:15:00,
2013-07-03 05:45:00,69.0,68.0,30.01,SSW,208,0.0,0.0,95,0.00,,,0.00,,2013-07-03 10:45:00,
2013-07-03 05:55:00,69.0,68.0,30.01,SSW,208,0.0,0.0,95,0.00,,,0.00,,2013-07-03 10:55:00,
2013-07-03 06:43:00,69.0,68.0,30.01,WSW,257,0.0,0.0,96,0.00,,,0.00,,2013-07-03 11:43:00,
2013-07-03 06:53:00,69.0,68.0,30.01,WSW,257,0.0,0.0,96,0.00,,,0.00,,2013-07-03 11:53:00,
2013-07-03 08:07:00,72.0,69.0,30.02,NNW,329,0.0,2.0,90,0.00,,,0.00,,2013-07-03 13:07:00,
2013-07-03 08:47:00,74.0,70.0,30.03,NNW,333,0.0,2.0,87,0.00,,,0.00,,2013-07-03 13:47:00,
2013-07-03 08:54:00,74.0,70.0,30.03,NNW,333,0.0,0.0,87,0.00,,,0.00,,2013-07-03 13:54:00,
2013-07-03 09:46:00,75.0,72.0,30.05,SE,138,0.0,2.0,89,0.00,,,0.00,,2013-07-03 14:46:00,
2013-07-03 10:05:00,76.0,71.0,30.05,ESE,120,3.0,5.0,84,0.00,,,0.00,,2013-07-03 15:05:00,
2013-07-03 10:37:00,76.0,70.0,30.05,South,172,4.0,6.0,82,0.00,,,0.00,,2013-07-03 15:37:00,
2013-07-03 10:47:00,77.0,71.0,30.05,SW,233,3.0,5.0,81,0.00,,,0.00,,2013-07-03 15:47:00,
2013-07-03 10:55:00,77.0,71.0,30.05,ESE,117,3.0,4.0,81,0.00,,,0.00,,2013-07-03 15:55:00,
2013-07-03 11:38:00,79.0,70.0,30.05,SSW,210,2.0,4.0,74,0.00,,,0.00,,2013-07-03 16:38:00,
2013-07-03 11:46:00,79.0,70.0,30.04,SSE,160,0.0,3.0,73,0.00,,,0.00,,2013-07-03 16:46:00,
2013-07-03 12:40:00,82.0,70.0,30.05,WNW,290,1.0,4.0,68,0.00,,,0.00,,2013-07-03 17:40:00,
2013-07-03 12:53:00,83.0,72.0,30.04,ESE,114,0.0,3.0,70,0.00,,,0.00,,2013-07-03 17:53:00,
2013-07-03 13:36:00,83.0,70.0,30.03,SW,233,1.0,6.0,66,0.00,,,0.00,,2013-07-03 18:36:00,
2013-07-03 13:56:00,82.0,70.0,30.02,North,0,3.0,4.0,68,0.00,,,0.00,,2013-07-03 18:56:00,
2013-07-03 14:37:00,84.0,70.0,30.02,South,188,3.0,5.0,64,0.00,,,0.00,,2013-07-03 19:37:00,
2013-07-03 14:46:00,84.0,70.0,30.01,ESE,104,2.0,3.0,63,0.00,,,0.00,,2013-07-03 19:46:00,
2013-07-03 15:37:00,84.0,70.0,30.00,South,184,4.0,5.0,63,0.00,,,0.00,,2013-07-03 20:37:00,
2013-07-03 15:55:00,85.0,70.0,29.99,ENE,77,2.0,6.0,62,0.00,,,0.00,,2013-07-03 20:55:00,
2013-07-03 16:44:00,82.0,70.0,29.99,SE,139,3.0,5.0,68,0.00,,,0.00,,2013-07-03 21:44:00,
2013-07-03 16:53:00,82.0,70.0,29.99,East,100,3.0,5.0,68,0.00,,,0.00,,2013-07-03 21:53:00,
2013-07-03 17:37:00,79.0,73.0,30.00,WNW,295,2.0,3.0,81,0.00,,,0.00,,2013-07-03 22:37:00,
2013-07-03 17:45:00,79.0,70.0,29.99,SSW,210,5.0,10.0,75,0.00,,,0.00,,2013-07-03 22:45:00,
2013-07-03 18:05:00,79.0,71.0,29.99,SSW,210,2.0,6.0,76,0.00,,,0.00,,2013-07-03 23:05:00,
2013-07-03 18:14:00,79.0,70.0,30.00,SW,221,3.0,7.0,75,0.00,,,0.00,,2013-07-03 23:14:00,
2013-07-03 18:40:00,79.0,71.0,30.01,South,186,4.0,9.0,77,0.00,,,0.00,,2013-07-03 23:40:00,
2013-07-03 18:45:00,78.0,71.0,30.00,SSE,166,3.0,9.0,79,0.00,,,0.00,,2013-07-03 23:45:00,
2013-07-03 18:54:00,78.0,71.0,30.00,SSE,152,3.0,9.0,80,0.00,,,0.00,,2013-07-03 23:54:00,
2013-07-03 19:04:00,78.0,72.0,30.01,SSW,195,3.0,8.0,81,0.00,,,0.00,,2013-07-04 00:04:00,
2013-07-03 19:15:00,78.0,72.0,30.01,South,169,4.0,7.0,82,0.00,,,0.00,,2013-07-04 00:15:00,
2013-07-03 19:25:00,78.0,72.0,30.01,SSE,149,1.0,5.0,82,0.00,,,0.00,,2013-07-04 00:25:00,
2013-07-03 19:37:00,78.0,72.0,30.02,SSE,167,2.0,7.0,82,0.00,,,0.00,,2013-07-04 00:37:00,
2013-07-03 19:48:00,78.0,72.0,30.02,SE,132,1.0,4.0,83,0.00,,,0.00,,2013-07-04 00:48:00,
2013-07-03 19:55:00,77.0,71.0,30.02,SSE,156,1.0,3.0,83,0.00,,,0.00,,2013-07-04 00:55:00,
2013-07-03 20:03:00,77.0,71.0,30.02,SSE,167,6.0,9.0,82,0.00,,,0.00,,2013-07-04 01:03:00,
2013-07-03 20:15:00,77.0,71.0,30.02,SSE,165,5.0,8.0,81,0.00,,,0.00,,2013-07-04 01:15:00,
2013-07-03 20:37:00,76.0,70.0,30.02,SE,143,2.0,5.0,82,0.00,,,0.00,,2013-07-04 01:37:00,
2013-07-03 21:07:00,76.0,71.0,30.02,SSE,150,4.0,8.0,85,0.00,,,0.00,,2013-07-04 02:07:00,
2013-07-03 21:47:00,75.0,71.0,30.03,SW,228,1.0,4.0,88,0.00,,,0.00,,2013-07-04 02:47:00,
2013-07-03 21:55:00,75.0,71.0,30.03,SSE,165,1.0,5.0,87,0.00,,,0.00,,2013-07-04 02:55:00,
2013-07-03 22:35:00,74.0,71.0,30.04,ESE,107,2.0,6.0,89,0.00,,,0.00,,2013-07-04 03:35:00,
2013-07-03 22:46:00,74.0,71.0,30.04,SSE,152,3.0,4.0,89,0.00,,,0.00,,2013-07-04 03:46:00,
2013-07-03 23:02:00,74.0,71.0,30.04,SE,145,3.0,6.0,90,0.00,,,0.00,,2013-07-04 04:02:00,
2013-07-03 23:33:00,73.0,71.0,30.04,SSE,162,1.0,5.0,92,0.00,,,0.00,,2013-07-04 04:33:00,